Time,TemperatureF,DewpointF,PressureIn,WindDirection,WindDirectionDegrees,WindSpeedMPH,WindSpeedGustMPH,Humidity,HourlyPrecipIn,Conditions,Clouds,dailyrainin,SoftwareType,DateUTC
2013-01-13 00:01:00,60.7,56.5,30.18,SE,125,0.0,3.0,86,0.00,,,0.01,Wunderground v.1.13,2013-01-13 05:01:00,
2013-01-13 00:03:00,60.7,56.5,30.18,South,182,0.0,3.0,86,0.00,,,0.01,Wunderground v.1.13,2013-01-13 05:03:00,
2013-01-13 00:04:00,60.7,56.5,30.18,SSE,155,1.0,3.0,86,0.00,,,0.01,Wunderground v.1.13,2013-01-13 05:04:00,
2013-01-13 00:07:00,60.8,56.6,30.18,SSW,211,0.0,1.0,86,0.00,,,0.01,Wunderground v.1.13,2013-01-13 05:07:00,
2013-01-13 00:13:00,60.9,56.7,30.18,South,188,3.0,3.0,86,0.00,,,0.01,Wunderground v.1.13,2013-01-13 05:13:00,
2013-01-13 00:18:00,60.9,56.7,30.18,South,180,7.0,7.0,86,0.00,,,0.01,Wunderground v.1.13,2013-01-13 05:18:00,
2013-01-13 00:23:00,60.9,56.7,30.17,South,186,2.0,2.0,86,0.00,,,0.01,Wunderground v.1.13,2013-01-13 05:23:00,
2013-01-13 00:29:00,60.8,56.6,30.17,South,182,6.0,6.0,86,0.00,,,0.01,Wunderground v.1.13,2013-01-13 05:29:00,
2013-01-13 00:34:00,60.7,56.8,30.17,SE,130,0.0,1.0,87,0.00,,,0.01,Wunderground v.1.13,2013-01-13 05:34:00,
2013-01-13 00:39:00,60.7,56.8,30.17,SSW,195,0.0,1.0,87,0.00,,,0.01,Wunderground v.1.13,2013-01-13 05:39:00,
2013-01-13 00:44:00,60.6,56.7,30.17,SE,134,0.0,4.0,87,0.00,,,0.01,Wunderground v.1.13,2013-01-13 05:44:00,
2013-01-13 00:49:00,60.5,56.6,30.17,South,172,4.0,7.0,87,0.00,,,0.00,Wunderground v.1.13,2013-01-13 05:49:00,
2013-01-13 00:55:00,60.5,56.6,30.18,SSE,160,0.0,2.0,87,0.00,,,0.00,Wunderground v.1.13,2013-01-13 05:55:00,
2013-01-13 01:00:00,60.4,56.5,30.18,SW,218,1.0,6.0,87,0.00,,,0.00,Wunderground v.1.13,2013-01-13 06:00:00,
2013-01-13 01:06:00,60.4,56.5,30.18,South,171,1.0,2.0,87,0.00,,,0.00,Wunderground v.1.13,2013-01-13 06:06:00,
2013-01-13 01:11:00,60.4,56.5,30.18,South,174,0.0,2.0,87,0.00,,,0.00,Wunderground v.1.13,2013-01-13 06:11:00,
2013-01-13 01:17:00,60.4,56.5,30.18,SSE,150,1.0,1.0,87,0.00,,,0.00,Wunderground v.1.13,2013-01-13 06:17:00,
2013-01-13 01:22:00,60.4,56.5,30.18,SSW,209,1.0,1.0,87,0.00,,,0.00,Wunderground v.1.13,2013-01-13 06:22:00,
2013-01-13 01:27:00,60.3,56.7,30.18,ESE,119,0.0,5.0,88,0.00,,,0.00,Wunderground v.1.13,2013-01-13 06:27:00,
2013-01-13 01:32:00,60.3,56.4,30.18,South,185,5.0,5.0,87,0.00,,,0.00,Wunderground v.1.13,2013-01-13 06:32:00,
2013-01-13 01:37:00,60.5,56.6,30.18,SSE,165,0.0,1.0,87,0.00,,,0.00,Wunderground v.1.13,2013-01-13 06:37:00,
2013-01-13 01:43:00,60.6,56.7,30.18,South,181,0.0,4.0,87,0.00,,,0.00,Wunderground v.1.13,2013-01-13 06:43:00,
2013-01-13 01:48:00,60.5,56.6,30.18,South,182,0.0,1.0,87,0.00,,,0.00,Wunderground v.1.13,2013-01-13 06:48:00,
2013-01-13 01:53:00,60.5,56.6,30.18,SW,232,0.0,3.0,87,0.00,,,0.00,Wunderground v.1.13,2013-01-13 06:53:00,
2013-01-13 01:58:00,60.5,56.6,30.17,SSW,199,0.0,5.0,87,0.00,,,0.00,Wunderground v.1.13,2013-01-13 06:58:00,
2013-01-13 02:03:00,60.6,56.7,30.17,SE,138,1.0,6.0,87,0.00,,,0.00,Wunderground v.1.13,2013-01-13 07:03:00,
2013-01-13 02:08:00,60.8,56.9,30.17,South,176,3.0,7.0,87,0.00,,,0.00,Wunderground v.1.13,2013-01-13 07:08:00,
2013-01-13 02:14:00,60.9,57.0,30.17,South,185,0.0,7.0,87,0.00,,,0.00,Wunderground v.1.13,2013-01-13 07:14:00,
2013-01-13 02:19:00,61.0,57.1,30.17,South,177,10.0,10.0,87,0.00,,,0.00,Wunderground v.1.13,2013-01-13 07:19:00,
2013-01-13 02:24:00,61.0,57.1,30.18,SW,218,2.0,4.0,87,0.00,,,0.00,Wunderground v.1.13,2013-01-13 07:24:00,
2013-01-13 02:29:00,61.0,57.1,30.18,SSE,160,1.0,7.0,87,0.00,,,0.00,Wunderground v.1.13,2013-01-13 07:29:00,
2013-01-13 02:34:00,61.0,57.1,30.18,SSW,198,1.0,4.0,87,0.00,,,0.00,Wunderground v.1.13,2013-01-13 07:34:00,
2013-01-13 02:39:00,60.9,57.0,30.18,South,183,1.0,2.0,87,0.00,,,0.00,Wunderground v.1.13,2013-01-13 07:39:00,
2013-01-13 02:44:00,60.9,57.0,30.17,SE,138,0.0,3.0,87,0.00,,,0.00,Wunderground v.1.13,2013-01-13 07:44:00,
2013-01-13 02:49:00,61.0,57.1,30.17,SW,220,0.0,5.0,87,0.00,,,0.00,Wunderground v.1.13,2013-01-13 07:49:00,
2013-01-13 02:54:00,61.1,57.2,30.17,South,176,1.0,3.0,87,0.00,,,0.00,Wunderground v.1.13,2013-01-13 07:54:00,
2013-01-13 02:59:00,61.0,57.1,30.17,South,190,0.0,2.0,87,0.00,,,0.00,Wunderground v.1.13,2013-01-13 07:59:00,
2013-01-13 03:04:00,61.1,57.5,30.17,SSW,208,1.0,9.0,88,0.00,,,0.00,Wunderground v.1.13,2013-01-13 08:04:00,
2013-01-13 03:09:00,61.1,57.5,30.18,SW,222,6.0,6.0,88,0.00,,,0.00,Wunderground v.1.13,2013-01-13 08:09:00,
2013-01-13 03:14:00,61.2,57.6,30.17,SSW,201,0.0,4.0,88,0.00,,,0.00,Wunderground v.1.13,2013-01-13 08:14:00,
2013-01-13 03:19:00,61.1,57.5,30.17,SSE,163,0.0,3.0,88,0.00,,,0.00,Wunderground v.1.13,2013-01-13 08:19:00,
2013-01-13 03:24:00,61.1,57.5,30.17,SSE,167,0.0,2.0,88,0.00,,,0.00,Wunderground v.1.13,2013-01-13 08:24:00,
2013-01-13 03:29:00,61.1,57.5,30.17,NNE,22,0.0,3.0,88,0.00,,,0.00,Wunderground v.1.13,2013-01-13 08:29:00,
2013-01-13 03:34:00,61.1,57.5,30.17,South,183,1.0,3.0,88,0.00,,,0.00,Wunderground v.1.13,2013-01-13 08:34:00,
2013-01-13 03:39:00,61.1,57.2,30.17,SSE,159,0.0,5.0,87,0.00,,,0.00,Wunderground v.1.13,2013-01-13 08:39:00,
2013-01-13 03:44:00,61.2,57.3,30.17,South,190,0.0,3.0,87,0.00,,,0.00,Wunderground v.1.13,2013-01-13 08:44:00,
2013-01-13 03:49:00,61.2,57.3,30.16,South,188,0.0,3.0,87,0.00,,,0.00,Wunderground v.1.13,2013-01-13 08:49:00,
2013-01-13 03:54:00,61.2,57.3,30.16,South,191,0.0,0.0,87,0.00,,,0.00,Wunderground v.1.13,2013-01-13 08:54:00,
2013-01-13 03:59:00,61.1,57.2,30.15,SSE,155,2.0,2.0,87,0.00,,,0.00,Wunderground v.1.13,2013-01-13 08:59:00,
2013-01-13 04:04:00,61.2,57.3,30.16,South,189,4.0,7.0,87,0.00,,,0.00,Wunderground v.1.13,2013-01-13 09:04:00,
2013-01-13 04:10:00,61.3,57.4,30.16,South,172,0.0,7.0,87,0.00,,,0.00,Wunderground v.1.13,2013-01-13 09:10:00,
2013-01-13 04:15:00,61.3,57.4,30.16,South,171,0.0,5.0,87,0.00,,,0.00,Wunderground v.1.13,2013-01-13 09:15:00,
2013-01-13 04:20:00,61.4,57.2,30.16,SSW,204,0.0,6.0,86,0.00,,,0.00,Wunderground v.1.13,2013-01-13 09:20:00,
2013-01-13 04:25:00,61.6,57.4,30.16,ESE,109,0.0,4.0,86,0.00,,,0.00,Wunderground v.1.13,2013-01-13 09:25:00,
2013-01-13 04:30:00,61.6,57.4,30.16,South,176,0.0,3.0,86,0.00,,,0.00,Wunderground v.1.13,2013-01-13 09:30:00,
2013-01-13 04:35:00,61.6,57.7,30.15,South,169,0.0,3.0,87,0.00,,,0.00,Wunderground v.1.13,2013-01-13 09:35:00,
2013-01-13 04:40:00,61.6,57.7,30.15,SW,226,0.0,7.0,87,0.00,,,0.00,Wunderground v.1.13,2013-01-13 09:40:00,
2013-01-13 04:45:00,61.7,57.8,30.15,South,183,5.0,7.0,87,0.00,,,0.00,Wunderground v.1.13,2013-01-13 09:45:00,
2013-01-13 04:50:00,61.8,57.9,30.15,South,190,0.0,7.0,87,0.00,,,0.00,Wunderground v.1.13,2013-01-13 09:50:00,
2013-01-13 04:55:00,62.0,57.8,30.14,SSE,164,0.0,8.0,86,0.00,,,0.00,Wunderground v.1.13,2013-01-13 09:55:00,
2013-01-13 05:00:00,61.9,57.7,30.14,SSW,197,0.0,6.0,86,0.00,,,0.00,Wunderground v.1.13,2013-01-13 10:00:00,
2013-01-13 05:05:00,62.0,57.8,30.14,SSE,150,0.0,6.0,86,0.00,,,0.00,Wunderground v.1.13,2013-01-13 10:05:00,
2013-01-13 05:10:00,62.0,57.8,30.14,SE,130,0.0,6.0,86,0.00,,,0.00,Wunderground v.1.13,2013-01-13 10:10:00,
2013-01-13 05:15:00,62.0,57.8,30.14,West,268,0.0,9.0,86,0.00,,,0.00,Wunderground v.1.13,2013-01-13 10:15:00,
2013-01-13 05:20:00,62.0,57.8,30.15,SSE,160,6.0,7.0,86,0.00,,,0.00,Wunderground v.1.13,2013-01-13 10:20:00,
2013-01-13 05:25:00,61.8,57.2,30.15,WSW,256,0.0,5.0,85,0.00,,,0.00,Wunderground v.1.13,2013-01-13 10:25:00,
2013-01-13 05:30:00,61.7,57.5,30.15,SSW,198,4.0,10.0,86,0.00,,,0.00,Wunderground v.1.13,2013-01-13 10:30:00,
2013-01-13 05:35:00,61.7,57.5,30.15,SSE,154,0.0,4.0,86,0.00,,,0.00,Wunderground v.1.13,2013-01-13 10:35:00,
2013-01-13 05:40:00,61.7,57.5,30.15,South,171,0.0,6.0,86,0.00,,,0.00,Wunderground v.1.13,2013-01-13 10:40:00,
2013-01-13 05:45:00,61.8,57.6,30.16,South,180,0.0,9.0,86,0.00,,,0.00,Wunderground v.1.13,2013-01-13 10:45:00,
2013-01-13 05:50:00,61.8,57.6,30.15,East,95,0.0,2.0,86,0.00,,,0.00,Wunderground v.1.13,2013-01-13 10:50:00,
2013-01-13 05:55:00,61.9,57.3,30.16,South,175,1.0,6.0,85,0.00,,,0.00,Wunderground v.1.13,2013-01-13 10:55:00,
2013-01-13 06:00:00,61.9,57.3,30.17,South,171,0.0,5.0,85,0.00,,,0.00,Wunderground v.1.13,2013-01-13 11:00:00,
2013-01-13 06:05:00,61.9,57.3,30.17,South,186,0.0,5.0,85,0.00,,,0.00,Wunderground v.1.13,2013-01-13 11:05:00,
2013-01-13 06:10:00,62.0,57.8,30.17,South,177,0.0,7.0,86,0.00,,,0.00,Wunderground v.1.13,2013-01-13 11:10:00,
2013-01-13 06:15:00,62.0,57.4,30.17,SSE,166,0.0,13.0,85,0.00,,,0.00,Wunderground v.1.13,2013-01-13 11:15:00,
2013-01-13 06:20:00,61.9,57.0,30.18,SSW,202,1.0,4.0,84,0.00,,,0.00,Wunderground v.1.13,2013-01-13 11:20:00,
2013-01-13 06:25:00,62.0,56.8,30.18,SSW,212,2.0,10.0,83,0.00,,,0.00,Wunderground v.1.13,2013-01-13 11:25:00,
2013-01-13 06:30:00,62.1,56.9,30.18,SSW,193,0.0,1.0,83,0.00,,,0.00,Wunderground v.1.13,2013-01-13 11:30:00,
2013-01-13 06:35:00,62.1,56.9,30.18,SE,132,0.0,6.0,83,0.00,,,0.00,Wunderground v.1.13,2013-01-13 11:35:00,
2013-01-13 06:40:00,62.1,56.5,30.19,South,188,1.0,5.0,82,0.00,,,0.00,Wunderground v.1.13,2013-01-13 11:40:00,
2013-01-13 06:45:00,61.9,56.3,30.19,SSW,203,1.0,7.0,82,0.00,,,0.00,Wunderground v.1.13,2013-01-13 11:45:00,
2013-01-13 06:50:00,62.0,56.1,30.18,South,186,0.0,1.0,81,0.00,,,0.00,Wunderground v.1.13,2013-01-13 11:50:00,
2013-01-13 06:56:00,61.9,56.3,30.18,WSW,240,0.0,1.0,82,0.00,,,0.00,Wunderground v.1.13,2013-01-13 11:56:00,
2013-01-13 07:01:00,61.7,55.8,30.18,SSE,157,0.0,6.0,81,0.00,,,0.00,Wunderground v.1.13,2013-01-13 12:01:00,
2013-01-13 07:06:00,61.5,55.6,30.18,ESE,106,1.0,1.0,81,0.00,,,0.00,Wunderground v.1.13,2013-01-13 12:06:00,
2013-01-13 07:11:00,61.2,55.3,30.19,SSE,161,0.0,1.0,81,0.00,,,0.00,Wunderground v.1.13,2013-01-13 12:11:00,
2013-01-13 07:16:00,61.1,55.6,30.20,South,169,0.0,1.0,82,0.00,,,0.00,Wunderground v.1.13,2013-01-13 12:16:00,
2013-01-13 07:21:00,60.8,55.3,30.20,SSW,192,0.0,1.0,82,0.00,,,0.00,Wunderground v.1.13,2013-01-13 12:21:00,
2013-01-13 07:26:00,60.5,55.0,30.20,South,178,1.0,1.0,82,0.00,,,0.00,Wunderground v.1.13,2013-01-13 12:26:00,
2013-01-13 07:31:00,60.4,55.2,30.20,SSW,202,0.0,0.0,83,0.00,,,0.00,Wunderground v.1.13,2013-01-13 12:31:00,
2013-01-13 07:36:00,60.4,55.2,30.20,ENE,65,0.0,1.0,83,0.00,,,0.00,Wunderground v.1.13,2013-01-13 12:36:00,
2013-01-13 07:41:00,60.3,55.1,30.20,South,183,0.0,0.0,83,0.00,,,0.00,Wunderground v.1.13,2013-01-13 12:41:00,
2013-01-13 07:46:00,60.1,55.2,30.20,South,182,0.0,0.0,84,0.00,,,0.00,Wunderground v.1.13,2013-01-13 12:46:00,
2013-01-13 07:51:00,59.9,55.4,30.21,South,175,0.0,0.0,85,0.00,,,0.00,Wunderground v.1.13,2013-01-13 12:51:00,
2013-01-13 07:56:00,59.8,55.3,30.20,SSE,161,0.0,0.0,85,0.00,,,0.00,Wunderground v.1.13,2013-01-13 12:56:00,
2013-01-13 08:01:00,59.8,55.6,30.20,SSE,161,0.0,0.0,86,0.00,,,0.00,Wunderground v.1.13,2013-01-13 13:01:00,
2013-01-13 08:06:00,59.7,55.5,30.21,WSW,244,0.0,2.0,86,0.00,,,0.00,Wunderground v.1.13,2013-01-13 13:06:00,
2013-01-13 08:11:00,59.6,55.7,30.21,WSW,244,0.0,0.0,87,0.00,,,0.00,Wunderground v.1.13,2013-01-13 13:11:00,
2013-01-13 08:16:00,59.5,55.9,30.22,WSW,244,0.0,0.0,88,0.00,,,0.00,Wunderground v.1.13,2013-01-13 13:16:00,
2013-01-13 08:21:00,59.5,55.9,30.21,WSW,238,0.0,0.0,88,0.00,,,0.00,Wunderground v.1.13,2013-01-13 13:21:00,
2013-01-13 08:26:00,59.6,56.0,30.22,WSW,248,0.0,1.0,88,0.00,,,0.00,Wunderground v.1.13,2013-01-13 13:26:00,
2013-01-13 08:31:00,59.7,56.1,30.22,WSW,248,0.0,0.0,88,0.00,,,0.00,Wunderground v.1.13,2013-01-13 13:31:00,
2013-01-13 08:36:00,59.9,56.3,30.23,SSW,209,1.0,3.0,88,0.00,,,0.00,Wunderground v.1.13,2013-01-13 13:36:00,
2013-01-13 08:41:00,60.1,56.5,30.23,SSW,209,0.0,0.0,88,0.00,,,0.00,Wunderground v.1.13,2013-01-13 13:41:00,
2013-01-13 08:46:00,60.4,56.8,30.23,SSW,209,0.0,0.0,88,0.00,,,0.00,Wunderground v.1.13,2013-01-13 13:46:00,
2013-01-13 08:51:00,60.7,57.1,30.23,SSW,209,0.0,0.0,88,0.00,,,0.00,Wunderground v.1.13,2013-01-13 13:51:00,
2013-01-13 08:56:00,60.9,56.7,30.23,SSW,196,0.0,0.0,86,0.00,,,0.00,Wunderground v.1.13,2013-01-13 13:56:00,
2013-01-13 09:01:00,61.2,57.0,30.23,South,175,0.0,0.0,86,0.00,,,0.00,Wunderground v.1.13,2013-01-13 14:01:00,
2013-01-13 09:06:00,61.3,57.4,30.23,South,175,0.0,1.0,87,0.00,,,0.00,Wunderground v.1.13,2013-01-13 14:06:00,
2013-01-13 09:11:00,61.5,57.3,30.23,South,175,0.0,0.0,86,0.00,,,0.00,Wunderground v.1.13,2013-01-13 14:11:00,
2013-01-13 09:16:00,61.6,57.0,30.23,SSW,202,0.0,1.0,85,0.00,,,0.00,Wunderground v.1.13,2013-01-13 14:16:00,
2013-01-13 09:21:00,61.8,57.2,30.23,SSW,202,0.0,0.0,85,0.00,,,0.00,Wunderground v.1.13,2013-01-13 14:21:00,
2013-01-13 09:26:00,61.9,57.7,30.22,SSW,201,0.0,0.0,86,0.00,,,0.00,Wunderground v.1.13,2013-01-13 14:26:00,
2013-01-13 09:31:00,62.1,57.9,30.23,South,169,0.0,1.0,86,0.00,,,0.00,Wunderground v.1.13,2013-01-13 14:31:00,
2013-01-13 09:37:00,62.3,57.7,30.22,South,188,1.0,2.0,85,0.00,,,0.00,Wunderground v.1.13,2013-01-13 14:37:00,
2013-01-13 09:41:00,62.3,57.7,30.22,NE,46,0.0,1.0,85,0.00,,,0.00,Wunderground v.1.13,2013-01-13 14:41:00,
2013-01-13 09:46:00,62.3,57.7,30.22,SSW,197,0.0,2.0,85,0.00,,,0.00,Wunderground v.1.13,2013-01-13 14:46:00,
2013-01-13 09:51:00,62.2,57.6,30.22,East,99,0.0,1.0,85,0.00,,,0.00,Wunderground v.1.13,2013-01-13 14:51:00,
2013-01-13 09:56:00,62.3,58.1,30.22,South,183,1.0,2.0,86,0.00,,,0.00,Wunderground v.1.13,2013-01-13 14:56:00,
2013-01-13 10:01:00,62.4,58.5,30.22,South,184,0.0,1.0,87,0.00,,,0.00,Wunderground v.1.13,2013-01-13 15:01:00,
2013-01-13 10:06:00,62.6,58.4,30.22,SE,126,1.0,4.0,86,0.00,,,0.00,Wunderground v.1.13,2013-01-13 15:06:00,
2013-01-13 10:12:00,62.7,58.5,30.22,ESE,121,0.0,4.0,86,0.00,,,0.00,Wunderground v.1.13,2013-01-13 15:12:00,
2013-01-13 10:17:00,62.7,58.5,30.21,SSE,165,0.0,1.0,86,0.00,,,0.00,Wunderground v.1.13,2013-01-13 15:17:00,
2013-01-13 10:22:00,62.8,58.2,30.22,SSE,155,0.0,3.0,85,0.00,,,0.00,Wunderground v.1.13,2013-01-13 15:22:00,
2013-01-13 10:27:00,63.0,58.7,30.22,South,180,0.0,1.0,86,0.00,,,0.00,Wunderground v.1.13,2013-01-13 15:27:00,
2013-01-13 10:32:00,63.1,58.5,30.22,SSW,211,0.0,3.0,85,0.00,,,0.00,Wunderground v.1.13,2013-01-13 15:32:00,
2013-01-13 10:37:00,63.2,58.9,30.22,SSW,211,0.0,0.0,86,0.00,,,0.00,Wunderground v.1.13,2013-01-13 15:37:00,
2013-01-13 10:42:00,63.3,59.0,30.22,SSW,208,1.0,1.0,86,0.00,,,0.00,Wunderground v.1.13,2013-01-13 15:42:00,
2013-01-13 10:47:00,63.4,59.1,30.21,SSW,197,0.0,0.0,86,0.00,,,0.00,Wunderground v.1.13,2013-01-13 15:47:00,
2013-01-13 10:52:00,63.4,58.5,30.21,SSW,213,2.0,7.0,84,0.00,,,0.00,Wunderground v.1.13,2013-01-13 15:52:00,
2013-01-13 10:57:00,63.4,58.8,30.21,South,178,0.0,1.0,85,0.00,,,0.00,Wunderground v.1.13,2013-01-13 15:57:00,
2013-01-13 11:02:00,63.5,58.9,30.21,South,182,0.0,2.0,85,0.00,,,0.00,Wunderground v.1.13,2013-01-13 16:02:00,
2013-01-13 11:07:00,63.7,59.1,30.21,South,187,2.0,4.0,85,0.00,,,0.00,Wunderground v.1.13,2013-01-13 16:07:00,
2013-01-13 11:12:00,63.7,59.1,30.21,South,181,0.0,5.0,85,0.00,,,0.00,Wunderground v.1.13,2013-01-13 16:12:00,
2013-01-13 11:17:00,63.7,59.1,30.20,ESE,115,1.0,3.0,85,0.00,,,0.00,Wunderground v.1.13,2013-01-13 16:17:00,
2013-01-13 11:22:00,63.6,59.0,30.21,South,187,0.0,2.0,85,0.00,,,0.00,Wunderground v.1.13,2013-01-13 16:22:00,
2013-01-13 11:27:00,63.6,59.0,30.21,SSE,149,0.0,1.0,85,0.00,,,0.00,Wunderground v.1.13,2013-01-13 16:27:00,
2013-01-13 11:32:00,63.5,59.2,30.21,SE,133,0.0,1.0,86,0.00,,,0.00,Wunderground v.1.13,2013-01-13 16:32:00,
2013-01-13 11:37:00,63.4,59.1,30.20,North,10,0.0,1.0,86,0.00,,,0.00,Wunderground v.1.13,2013-01-13 16:37:00,
2013-01-13 11:42:00,63.2,58.9,30.20,ESE,115,0.0,5.0,86,0.00,,,0.00,Wunderground v.1.13,2013-01-13 16:42:00,
2013-01-13 11:47:00,62.9,58.6,30.20,South,180,2.0,5.0,86,0.00,,,0.00,Wunderground v.1.13,2013-01-13 16:47:00,
2013-01-13 11:52:00,62.8,58.9,30.19,East,99,0.0,9.0,87,0.00,,,0.00,Wunderground v.1.13,2013-01-13 16:52:00,
2013-01-13 11:57:00,62.8,58.9,30.19,SSE,155,0.0,2.0,87,0.00,,,0.00,Wunderground v.1.13,2013-01-13 16:57:00,
2013-01-13 12:02:00,62.8,58.9,30.18,SSE,148,0.0,6.0,87,0.00,,,0.00,Wunderground v.1.13,2013-01-13 17:02:00,
2013-01-13 12:07:00,62.8,58.9,30.18,SSE,164,0.0,7.0,87,0.00,,,0.00,Wunderground v.1.13,2013-01-13 17:07:00,
2013-01-13 12:12:00,62.9,59.0,30.18,South,179,5.0,5.0,87,0.00,,,0.00,Wunderground v.1.13,2013-01-13 17:12:00,
2013-01-13 12:17:00,62.9,59.0,30.18,East,91,0.0,1.0,87,0.00,,,0.00,Wunderground v.1.13,2013-01-13 17:17:00,
2013-01-13 12:22:00,63.1,59.2,30.17,ESE,113,0.0,3.0,87,0.00,,,0.00,Wunderground v.1.13,2013-01-13 17:22:00,
2013-01-13 12:27:00,63.2,58.9,30.17,SW,225,1.0,4.0,86,0.00,,,0.00,Wunderground v.1.13,2013-01-13 17:27:00,
2013-01-13 12:32:00,63.4,59.5,30.17,South,176,1.0,4.0,87,0.00,,,0.00,Wunderground v.1.13,2013-01-13 17:32:00,
2013-01-13 12:37:00,63.5,58.9,30.17,South,171,1.0,5.0,85,0.00,,,0.00,Wunderground v.1.13,2013-01-13 17:37:00,
2013-01-13 12:42:00,63.7,58.8,30.17,South,179,4.0,9.0,84,0.00,,,0.00,Wunderground v.1.13,2013-01-13 17:42:00,
2013-01-13 12:47:00,63.8,59.2,30.17,SSE,148,3.0,3.0,85,0.00,,,0.00,Wunderground v.1.13,2013-01-13 17:47:00,
2013-01-13 12:52:00,64.0,58.7,30.16,SSW,196,0.0,4.0,83,0.00,,,0.00,Wunderground v.1.13,2013-01-13 17:52:00,
2013-01-13 12:57:00,64.2,58.9,30.16,SW,224,0.0,2.0,83,0.00,,,0.00,Wunderground v.1.13,2013-01-13 17:57:00,
2013-01-13 13:02:00,64.5,58.9,30.16,SSW,196,1.0,6.0,82,0.00,,,0.00,Wunderground v.1.13,2013-01-13 18:02:00,
2013-01-13 13:07:00,64.8,58.5,30.15,SE,133,5.0,7.0,80,0.00,,,0.00,Wunderground v.1.13,2013-01-13 18:07:00,
2013-01-13 13:12:00,64.6,58.6,30.16,South,183,0.0,2.0,81,0.00,,,0.00,Wunderground v.1.13,2013-01-13 18:12:00,
2013-01-13 13:17:00,64.5,58.9,30.16,South,170,0.0,6.0,82,0.00,,,0.00,Wunderground v.1.13,2013-01-13 18:17:00,
2013-01-13 13:22:00,64.6,58.6,30.16,East,82,0.0,7.0,81,0.00,,,0.00,Wunderground v.1.13,2013-01-13 18:22:00,
2013-01-13 13:27:00,64.8,58.5,30.16,SSE,152,0.0,6.0,80,0.00,,,0.00,Wunderground v.1.13,2013-01-13 18:27:00,
2013-01-13 13:32:00,64.8,58.5,30.16,SE,126,0.0,8.0,80,0.00,,,0.00,Wunderground v.1.13,2013-01-13 18:32:00,
2013-01-13 13:37:00,64.6,58.3,30.15,SE,138,0.0,4.0,80,0.00,,,0.00,Wunderground v.1.13,2013-01-13 18:37:00,
2013-01-13 13:42:00,64.6,58.3,30.16,SSW,194,4.0,5.0,80,0.00,,,0.00,Wunderground v.1.13,2013-01-13 18:42:00,
2013-01-13 13:47:00,64.6,58.3,30.15,East,81,0.0,2.0,80,0.00,,,0.00,Wunderground v.1.13,2013-01-13 18:47:00,
2013-01-13 13:52:00,64.8,58.1,30.15,SSE,159,0.0,3.0,79,0.00,,,0.00,Wunderground v.1.13,2013-01-13 18:52:00,
2013-01-13 13:57:00,64.8,57.8,30.15,SSE,155,2.0,5.0,78,0.00,,,0.00,Wunderground v.1.13,2013-01-13 18:57:00,
2013-01-13 14:02:00,64.7,58.0,30.15,South,176,1.0,5.0,79,0.00,,,0.00,Wunderground v.1.13,2013-01-13 19:02:00,
2013-01-13 14:07:00,64.3,57.6,30.15,SSE,158,5.0,9.0,79,0.00,,,0.00,Wunderground v.1.13,2013-01-13 19:07:00,
2013-01-13 14:12:00,64.0,58.1,30.15,ESE,118,0.0,3.0,81,0.00,,,0.00,Wunderground v.1.13,2013-01-13 19:12:00,
2013-01-13 14:18:00,63.9,58.0,30.15,SSW,195,0.0,2.0,81,0.00,,,0.00,Wunderground v.1.13,2013-01-13 19:18:00,
2013-01-13 14:23:00,63.7,57.8,30.16,SSE,158,0.0,6.0,81,0.00,,,0.00,Wunderground v.1.13,2013-01-13 19:23:00,
2013-01-13 14:28:00,63.6,58.0,30.16,South,188,0.0,1.0,82,0.00,,,0.00,Wunderground v.1.13,2013-01-13 19:28:00,
2013-01-13 14:33:00,63.4,57.8,30.16,South,182,0.0,2.0,82,0.00,,,0.00,Wunderground v.1.13,2013-01-13 19:33:00,
2013-01-13 14:38:00,63.4,57.8,30.16,SSE,166,5.0,6.0,82,0.00,,,0.00,Wunderground v.1.13,2013-01-13 19:38:00,
2013-01-13 14:43:00,63.4,58.1,30.16,South,175,0.0,2.0,83,0.00,,,0.00,Wunderground v.1.13,2013-01-13 19:43:00,
2013-01-13 14:48:00,63.4,58.1,30.16,South,169,1.0,1.0,83,0.00,,,0.00,Wunderground v.1.13,2013-01-13 19:48:00,
2013-01-13 14:53:00,63.4,58.1,30.16,SSE,161,0.0,2.0,83,0.00,,,0.00,Wunderground v.1.13,2013-01-13 19:53:00,
2013-01-13 14:58:00,63.5,57.9,30.17,ESE,114,0.0,2.0,82,0.00,,,0.00,Wunderground v.1.13,2013-01-13 19:58:00,
2013-01-13 15:03:00,63.5,58.2,30.16,South,185,3.0,5.0,83,0.00,,,0.00,Wunderground v.1.13,2013-01-13 20:03:00,
2013-01-13 15:08:00,63.6,58.3,30.16,South,180,2.0,4.0,83,0.00,,,0.00,Wunderground v.1.13,2013-01-13 20:08:00,
2013-01-13 15:13:00,63.5,58.2,30.16,WNW,288,0.0,5.0,83,0.00,,,0.00,Wunderground v.1.13,2013-01-13 20:13:00,
2013-01-13 15:18:00,63.5,58.2,30.16,SE,138,0.0,3.0,83,0.00,,,0.00,Wunderground v.1.13,2013-01-13 20:18:00,
2013-01-13 15:23:00,63.5,58.2,30.16,South,185,0.0,3.0,83,0.00,,,0.00,Wunderground v.1.13,2013-01-13 20:23:00,
2013-01-13 15:28:00,63.6,58.3,30.16,South,180,0.0,4.0,83,0.00,,,0.00,Wunderground v.1.13,2013-01-13 20:28:00,
2013-01-13 15:33:00,63.8,58.5,30.16,ESE,118,0.0,3.0,83,0.00,,,0.00,Wunderground v.1.13,2013-01-13 20:33:00,
2013-01-13 15:38:00,64.0,58.4,30.16,South,186,1.0,8.0,82,0.00,,,0.00,Wunderground v.1.13,2013-01-13 20:38:00,
2013-01-13 15:43:00,64.1,58.5,30.16,South,174,2.0,4.0,82,0.00,,,0.00,Wunderground v.1.13,2013-01-13 20:43:00,
2013-01-13 15:48:00,64.3,58.7,30.17,SSW,198,2.0,4.0,82,0.00,,,0.00,Wunderground v.1.13,2013-01-13 20:48:00,
2013-01-13 15:53:00,64.3,58.3,30.16,SSE,166,0.0,3.0,81,0.00,,,0.00,Wunderground v.1.13,2013-01-13 20:53:00,
2013-01-13 15:58:00,64.4,58.4,30.16,ESE,123,1.0,4.0,81,0.00,,,0.00,Wunderground v.1.13,2013-01-13 20:58:00,
2013-01-13 16:03:00,64.5,58.5,30.16,SSE,158,0.0,6.0,81,0.00,,,0.00,Wunderground v.1.13,2013-01-13 21:03:00,
2013-01-13 16:08:00,64.5,58.2,30.16,SSE,157,1.0,7.0,80,0.00,,,0.00,Wunderground v.1.13,2013-01-13 21:08:00,
2013-01-13 16:13:00,64.5,58.5,30.17,SE,132,0.0,5.0,81,0.00,,,0.00,Wunderground v.1.13,2013-01-13 21:13:00,
2013-01-13 16:18:00,64.5,58.2,30.17,SE,144,0.0,5.0,80,0.00,,,0.00,Wunderground v.1.13,2013-01-13 21:18:00,
2013-01-13 16:23:00,64.4,58.4,30.16,SE,126,1.0,7.0,81,0.00,,,0.00,Wunderground v.1.13,2013-01-13 21:23:00,
2013-01-13 16:28:00,64.3,58.7,30.16,West,277,0.0,3.0,82,0.00,,,0.00,Wunderground v.1.13,2013-01-13 21:28:00,
2013-01-13 16:33:00,64.1,58.1,30.16,SSW,201,0.0,8.0,81,0.00,,,0.00,Wunderground v.1.13,2013-01-13 21:33:00,
2013-01-13 16:38:00,64.0,58.1,30.17,South,186,0.0,3.0,81,0.00,,,0.00,Wunderground v.1.13,2013-01-13 21:38:00,
2013-01-13 16:43:00,64.0,58.1,30.16,SE,143,6.0,6.0,81,0.00,,,0.00,Wunderground v.1.13,2013-01-13 21:43:00,
2013-01-13 16:48:00,63.9,58.0,30.16,SE,144,1.0,7.0,81,0.00,,,0.00,Wunderground v.1.13,2013-01-13 21:48:00,
2013-01-13 16:53:00,63.8,58.2,30.17,SW,216,0.0,1.0,82,0.00,,,0.00,Wunderground v.1.13,2013-01-13 21:53:00,
2013-01-13 16:58:00,63.8,58.2,30.16,WSW,241,0.0,5.0,82,0.00,,,0.00,Wunderground v.1.13,2013-01-13 21:58:00,
2013-01-13 17:03:00,63.7,58.1,30.16,SSW,198,0.0,5.0,82,0.00,,,0.00,Wunderground v.1.13,2013-01-13 22:03:00,
2013-01-13 17:08:00,63.6,58.0,30.16,SSW,194,0.0,4.0,82,0.00,,,0.00,Wunderground v.1.13,2013-01-13 22:08:00,
2013-01-13 17:13:00,63.6,58.3,30.16,SSE,155,1.0,7.0,83,0.00,,,0.00,Wunderground v.1.13,2013-01-13 22:13:00,
2013-01-13 17:18:00,63.4,58.1,30.16,ESE,105,0.0,7.0,83,0.00,,,0.00,Wunderground v.1.13,2013-01-13 22:18:00,
2013-01-13 17:23:00,63.3,58.0,30.16,ENE,76,0.0,2.0,83,0.00,,,0.00,Wunderground v.1.13,2013-01-13 22:23:00,
2013-01-13 17:29:00,63.2,57.9,30.16,South,169,3.0,7.0,83,0.00,,,0.00,Wunderground v.1.13,2013-01-13 22:29:00,
2013-01-13 17:34:00,63.1,57.9,30.15,SSE,164,0.0,5.0,83,0.00,,,0.00,Wunderground v.1.13,2013-01-13 22:34:00,
2013-01-13 17:39:00,63.0,58.1,30.15,SSW,200,0.0,5.0,84,0.00,,,0.00,Wunderground v.1.13,2013-01-13 22:39:00,
2013-01-13 17:44:00,62.9,58.0,30.15,South,183,3.0,9.0,84,0.00,,,0.00,Wunderground v.1.13,2013-01-13 22:44:00,
2013-01-13 17:49:00,62.9,58.0,30.14,SSW,212,0.0,4.0,84,0.00,,,0.00,Wunderground v.1.13,2013-01-13 22:49:00,
2013-01-13 17:54:00,62.7,57.8,30.14,SW,232,1.0,3.0,84,0.00,,,0.00,Wunderground v.1.13,2013-01-13 22:54:00,
2013-01-13 17:59:00,62.8,57.9,30.14,SSW,194,5.0,7.0,84,0.00,,,0.00,Wunderground v.1.13,2013-01-13 22:59:00,
2013-01-13 18:04:00,62.7,57.8,30.14,SW,233,0.0,4.0,84,0.00,,,0.00,Wunderground v.1.13,2013-01-13 23:04:00,
2013-01-13 18:09:00,62.6,57.7,30.14,SSW,207,0.0,4.0,84,0.00,,,0.00,Wunderground v.1.13,2013-01-13 23:09:00,
2013-01-13 18:14:00,62.7,57.8,30.14,SSW,200,1.0,7.0,84,0.00,,,0.00,Wunderground v.1.13,2013-01-13 23:14:00,
2013-01-13 18:19:00,62.8,57.9,30.14,South,180,0.0,8.0,84,0.00,,,0.00,Wunderground v.1.13,2013-01-13 23:19:00,
2013-01-13 18:24:00,62.7,57.8,30.14,South,180,1.0,7.0,84,0.00,,,0.00,Wunderground v.1.13,2013-01-13 23:24:00,
2013-01-13 18:29:00,62.7,58.1,30.14,West,271,2.0,4.0,85,0.00,,,0.00,Wunderground v.1.13,2013-01-13 23:29:00,
2013-01-13 18:34:00,62.6,58.0,30.15,SW,223,2.0,5.0,85,0.00,,,0.00,Wunderground v.1.13,2013-01-13 23:34:00,
2013-01-13 18:39:00,62.7,58.1,30.14,SSW,211,1.0,9.0,85,0.00,,,0.00,Wunderground v.1.13,2013-01-13 23:39:00,
2013-01-13 18:44:00,62.7,58.1,30.15,SW,234,7.0,7.0,85,0.00,,,0.00,Wunderground v.1.13,2013-01-13 23:44:00,
2013-01-13 18:49:00,62.7,58.1,30.15,WSW,246,0.0,7.0,85,0.00,,,0.00,Wunderground v.1.13,2013-01-13 23:49:00,
2013-01-13 18:54:00,62.8,58.2,30.15,South,184,3.0,6.0,85,0.00,,,0.00,Wunderground v.1.13,2013-01-13 23:54:00,
2013-01-13 18:59:00,62.9,58.3,30.15,South,176,8.0,8.0,85,0.00,,,0.00,Wunderground v.1.13,2013-01-13 23:59:00,
2013-01-13 19:04:00,62.9,58.3,30.15,SE,132,0.0,11.0,85,0.00,,,0.00,Wunderground v.1.13,2013-01-14 00:04:00,
2013-01-13 19:09:00,63.0,58.4,30.15,SSW,195,0.0,6.0,85,0.00,,,0.00,Wunderground v.1.13,2013-01-14 00:09:00,
2013-01-13 19:15:00,63.1,58.2,30.15,South,184,0.0,6.0,84,0.00,,,0.00,Wunderground v.1.13,2013-01-14 00:15:00,
2013-01-13 19:20:00,63.1,58.2,30.15,SSE,157,0.0,4.0,84,0.00,,,0.00,Wunderground v.1.13,2013-01-14 00:20:00,
2013-01-13 19:25:00,63.1,58.2,30.16,South,176,2.0,8.0,84,0.00,,,0.00,Wunderground v.1.13,2013-01-14 00:25:00,
2013-01-13 19:30:00,63.2,58.3,30.16,South,175,3.0,8.0,84,0.00,,,0.00,Wunderground v.1.13,2013-01-14 00:30:00,
2013-01-13 19:35:00,63.3,58.4,30.16,SSE,167,0.0,7.0,84,0.00,,,0.00,Wunderground v.1.13,2013-01-14 00:35:00,
2013-01-13 19:40:00,63.3,58.4,30.16,South,171,1.0,7.0,84,0.00,,,0.00,Wunderground v.1.13,2013-01-14 00:40:00,
2013-01-13 19:45:00,63.4,58.5,30.16,ESE,120,0.0,6.0,84,0.00,,,0.00,Wunderground v.1.13,2013-01-14 00:45:00,
2013-01-13 19:50:00,63.4,58.8,30.16,SE,146,0.0,11.0,85,0.00,,,0.00,Wunderground v.1.13,2013-01-14 00:50:00,
2013-01-13 19:55:00,63.4,58.8,30.16,SSW,196,1.0,6.0,85,0.00,,,0.00,Wunderground v.1.13,2013-01-14 00:55:00,
2013-01-13 20:00:00,63.4,58.8,30.16,WSW,252,0.0,7.0,85,0.00,,,0.00,Wunderground v.1.13,2013-01-14 01:00:00,
2013-01-13 20:05:00,63.4,58.8,30.16,South,178,1.0,4.0,85,0.00,,,0.00,Wunderground v.1.13,2013-01-14 01:05:00,
2013-01-13 20:10:00,63.3,58.7,30.16,SSE,154,1.0,7.0,85,0.00,,,0.00,Wunderground v.1.13,2013-01-14 01:10:00,
2013-01-13 20:15:00,63.3,59.0,30.15,South,176,0.0,7.0,86,0.00,,,0.00,Wunderground v.1.13,2013-01-14 01:15:00,
2013-01-13 20:20:00,63.2,58.9,30.15,South,186,0.0,6.0,86,0.00,,,0.00,Wunderground v.1.13,2013-01-14 01:20:00,
2013-01-13 20:25:00,63.2,58.9,30.15,WSW,238,1.0,8.0,86,0.00,,,0.00,Wunderground v.1.13,2013-01-14 01:25:00,
2013-01-13 20:30:00,63.1,59.2,30.16,SSW,209,1.0,7.0,87,0.00,,,0.00,Wunderground v.1.13,2013-01-14 01:30:00,
2013-01-13 20:35:00,63.1,59.2,30.16,SE,126,0.0,5.0,87,0.00,,,0.00,Wunderground v.1.13,2013-01-14 01:35:00,
2013-01-13 20:40:00,63.0,59.1,30.16,South,191,0.0,6.0,87,0.00,,,0.00,Wunderground v.1.13,2013-01-14 01:40:00,
2013-01-13 20:45:00,63.1,59.2,30.16,SE,131,0.0,9.0,87,0.00,,,0.00,Wunderground v.1.13,2013-01-14 01:45:00,
2013-01-13 20:50:00,63.1,59.2,30.15,South,176,0.0,4.0,87,0.00,,,0.00,Wunderground v.1.13,2013-01-14 01:50:00,
2013-01-13 20:55:00,63.1,58.8,30.15,SE,130,1.0,1.0,86,0.00,,,0.00,Wunderground v.1.13,2013-01-14 01:55:00,
2013-01-13 21:00:00,63.1,58.8,30.15,South,177,0.0,1.0,86,0.00,,,0.00,Wunderground v.1.13,2013-01-14 02:00:00,
2013-01-13 21:05:00,63.2,58.9,30.15,South,176,3.0,5.0,86,0.00,,,0.00,Wunderground v.1.13,2013-01-14 02:05:00,
2013-01-13 21:10:00,63.1,59.2,30.15,South,181,0.0,1.0,87,0.00,,,0.00,Wunderground v.1.13,2013-01-14 02:10:00,
2013-01-13 21:15:00,63.1,59.5,30.15,SSW,197,1.0,1.0,88,0.00,,,0.00,Wunderground v.1.13,2013-01-14 02:15:00,
2013-01-13 21:20:00,62.8,59.2,30.15,ESE,115,1.0,3.0,88,0.00,,,0.01,Wunderground v.1.13,2013-01-14 02:20:00,
2013-01-13 21:25:00,62.5,59.5,30.15,East,88,0.0,0.0,90,0.00,,,0.01,Wunderground v.1.13,2013-01-14 02:25:00,
2013-01-13 21:30:00,62.1,59.4,30.15,South,169,0.0,1.0,91,0.24,,,0.03,Wunderground v.1.13,2013-01-14 02:30:00,
2013-01-13 21:35:00,61.7,59.4,30.15,SW,219,2.0,2.0,92,0.35,,,0.05,Wunderground v.1.13,2013-01-14 02:35:00,
2013-01-13 21:40:00,61.3,59.3,30.15,SSE,150,0.0,0.0,93,0.14,,,0.06,Wunderground v.1.13,2013-01-14 02:40:00,
2013-01-13 21:45:00,61.1,59.4,30.14,SSW,192,0.0,1.0,94,0.18,,,0.08,Wunderground v.1.13,2013-01-14 02:45:00,
2013-01-13 21:50:00,60.9,59.5,30.15,South,176,0.0,0.0,95,0.18,,,0.09,Wunderground v.1.13,2013-01-14 02:50:00,
2013-01-13 21:55:00,60.8,59.4,30.15,South,170,0.0,0.0,95,0.15,,,0.10,Wunderground v.1.13,2013-01-14 02:55:00,
2013-01-13 22:01:00,60.7,59.3,30.15,South,190,0.0,0.0,95,0.17,,,0.12,Wunderground v.1.13,2013-01-14 03:01:00,
2013-01-13 22:06:00,60.6,59.5,30.15,SSE,148,0.0,0.0,96,0.17,,,0.13,Wunderground v.1.13,2013-01-14 03:06:00,
2013-01-13 22:11:00,60.5,59.4,30.16,South,189,0.0,0.0,96,0.27,,,0.15,Wunderground v.1.13,2013-01-14 03:11:00,
2013-01-13 22:16:00,60.5,59.4,30.16,SE,139,0.0,0.0,96,0.29,,,0.18,Wunderground v.1.13,2013-01-14 03:16:00,
2013-01-13 22:21:00,60.4,59.3,30.16,SE,126,0.0,0.0,96,0.25,,,0.21,Wunderground v.1.13,2013-01-14 03:21:00,
2013-01-13 22:26:00,60.4,59.5,30.16,SE,126,0.0,0.0,97,0.11,,,0.21,Wunderground v.1.13,2013-01-14 03:26:00,
2013-01-13 22:31:00,60.4,59.5,30.16,SE,126,0.0,0.0,97,0.20,,,0.23,Wunderground v.1.13,2013-01-14 03:31:00,
2013-01-13 22:36:00,60.4,59.5,30.16,SE,126,0.0,0.0,97,0.23,,,0.25,Wunderground v.1.13,2013-01-14 03:36:00,
2013-01-13 22:41:00,60.3,59.4,30.16,SE,142,0.0,0.0,97,0.13,,,0.26,Wunderground v.1.13,2013-01-14 03:41:00,
2013-01-13 22:46:00,60.3,59.4,30.16,SE,142,0.0,0.0,97,0.09,,,0.26,Wunderground v.1.13,2013-01-14 03:46:00,
2013-01-13 22:51:00,60.3,59.4,30.16,SE,142,0.0,0.0,97,0.05,,,0.26,Wunderground v.1.13,2013-01-14 03:51:00,
2013-01-13 22:56:00,60.3,59.4,30.16,SSE,159,0.0,0.0,97,0.05,,,0.27,Wunderground v.1.13,2013-01-14 03:56:00,
2013-01-13 23:01:00,60.3,59.4,30.16,SSE,158,0.0,0.0,97,0.05,,,0.27,Wunderground v.1.13,2013-01-14 04:01:00,
2013-01-13 23:06:00,60.4,59.5,30.16,SSE,158,0.0,0.0,97,0.04,,,0.27,Wunderground v.1.13,2013-01-14 04:06:00,
2013-01-13 23:11:00,60.4,59.5,30.16,South,180,0.0,0.0,97,0.00,,,0.27,Wunderground v.1.13,2013-01-14 04:11:00,
2013-01-13 23:16:00,60.4,59.5,30.16,South,180,0.0,0.0,97,0.00,,,0.27,Wunderground v.1.13,2013-01-14 04:16:00,
2013-01-13 23:21:00,60.3,59.7,30.16,South,179,0.0,0.0,98,0.14,,,0.29,Wunderground v.1.13,2013-01-14 04:21:00,
2013-01-13 23:26:00,60.4,59.8,30.16,South,176,0.0,0.0,98,0.14,,,0.30,Wunderground v.1.13,2013-01-14 04:26:00,
2013-01-13 23:31:00,60.3,59.7,30.16,SSW,203,1.0,1.0,98,0.13,,,0.31,Wunderground v.1.13,2013-01-14 04:31:00,
2013-01-13 23:36:00,60.4,59.8,30.16,SSW,197,0.0,0.0,98,0.13,,,0.32,Wunderground v.1.13,2013-01-14 04:36:00,
2013-01-13 23:41:00,60.4,59.8,30.16,SE,140,2.0,2.0,98,0.15,,,0.33,Wunderground v.1.13,2013-01-14 04:41:00,
2013-01-13 23:46:00,60.4,59.8,30.16,SSE,167,0.0,0.0,98,0.20,,,0.35,Wunderground v.1.13,2013-01-14 04:46:00,
2013-01-13 23:51:00,60.4,59.8,30.18,South,177,1.0,3.0,98,0.35,,,0.38,Wunderground v.1.13,2013-01-14 04:51:00,
2013-01-13 23:56:00,60.4,59.8,30.17,NNE,25,3.0,5.0,98,1.21,,,0.46,Wunderground v.1.13,2013-01-14 04:56:00,